User: anonymous   Login
Location: ?????
(30.2541°N, 31.0910°E)
Time: 16:58:44
(UTC+00:00)
Language:

Envisat - Orbit

View from above orbital plane
View from above orbital plane
View from above satellite
View from above satellite

Ground track
Ground track

The orbit data is extracted from the following two-line orbital elements,

1 27386U 02009A   24106.50485677  .00000313  00000-0  11616-3 0  9997
2 27386  98.2767  69.7931 0001253  81.8395  29.2181 14.38539108159568
Epoch (UTC): 15 April 2024 12:06:59
Eccentricity: 0.0001253
inclination: 98.2767°
perigee height: 762 km
apogee height: 764 km
right ascension of ascending node: 69.7931°
argument of perigee: 81.8395°
revolutions per day: 14.38539108
mean anomaly at epoch: 29.2181°
orbit number at epoch: 15956

The dashed part of the orbit path shows where the satellite is in the earth's shadow,  

DLR